Regional Weather Roundup
Issued by NWS San Diego, CA

Home | Current Version | Previous Version | Text Only | Print | Product List | Glossary On
Versions: 1 2 3 4 5 6 7 8 9 10 11 12 13 14 15 16 17 18 19 20 21 22 23 24 25 26
000
ASUS46 KSGX 111611
RWRSGX

SAN DIEGO HOURLY WEATHER ROUNDUP
NATIONAL WEATHER SERVICE SAN DIEGO CA
800 AM PST MON DEC 11 2017

NOTE: "FAIR" INDICATES FEW OR NO CLOUDS BELOW 12,000 FEET WITH NO
SIGNIFICANT WEATHER AND/OR OBSTRUCTIONS TO VISIBILITY.

CAZ042-043-060-061-PZZ750-775-111700-

GREATER SAN DIEGO AREA

CITY           SKY/WX    TMP DP  RH WIND       PRES   REMARKS
SAN DIEGO AP   MOSUNNY   59  25  27 N3        30.20R
NATIONAL CITY    N/A     52  29  41 CALM      30.20R
CHULA VISTA      N/A     56  31  37 E1        30.10R
IMPERIAL BEACH PTSUNNY   60  19  20 N7        30.18R
BROWN FIELD    SUNNY     68  10  10 E7        30.19R
MIRAMAR MCAS   MOSUNNY   68  15  13 NE6       30.19R
MONTGOMERY FLD SUNNY     67  19  16 CALM      30.19R
GILLESPIE FLD  SUNNY     48  25  40 CALM      30.21

$$

NORTH SAN DIEGO COUNTY

CITY           SKY/WX    TMP DP  RH WIND       PRES   REMARKS
CAMP PENDLETON PTSUNNY   55  22  27 NE3       30.19R
OCEANSIDE AP   MOSUNNY   56  26  31 CALM      30.19R
OCEANSIDE HBR    N/A     59  25  27 NE13      30.21R
VISTA            N/A     58  28  31 CALM      30.16R
CARLSBAD       MOSUNNY   65  24  21 E3        30.18R
DEL MAR          N/A     61  25  25 CALM      30.21R
LA JOLLA SCRIP   N/A     69  21  16 NE1       30.18R
FALLBROOK        N/A     64  19  17 CALM      30.20R
ESCONDIDO        N/A     58  31  35 CALM      30.20R
SAN MARCOS       N/A     67  27  22 CALM      30.20R
POWAY            N/A    N/A N/A N/A CALM      30.21R

$$

EAST SAN DIEGO COUNTY

CITY           SKY/WX    TMP DP  RH WIND       PRES   REMARKS
RAMONA         MOSUNNY   60  14  16 W3        30.21R
SANTEE LAKES     N/A     47  21  35 CALM      30.19R
LA MESA          N/A     59  22  23 CALM      30.12R
JAMUL            N/A     60  25  26 CALM      30.19R
DESCANSO N       N/A     62  12  14 NE8       30.14R
MT. LAGUNA OBS   N/A     47   2  15 E14       30.24R

$$

ORANGE COUNTY AND THE LOS ANGELES BASIN

CITY           SKY/WX    TMP DP  RH WIND       PRES   REMARKS
JOHN WAYNE AP  PTSUNNY   58  30  34 E3        30.18R
LAGUNA BEACH     N/A     51  24  34 CALM      30.13R
LAKE FOREST FR   N/A     62  16  16 NE3       30.06R
HUNTINGTON BCH   N/A     54  30  40 N1        30.19R
LOS ALAMITOS   MOSUNNY   54  26  33 NW7       30.18R
FULLERTON      SUNNY     56  29  35 CALM      30.18R
LONG BEACH     SUNNY     59  20  22 NW3       30.19R
L.A. AP        PTSUNNY   61  16  17 E6        30.20R
L.A. DOWNTOWN  SUNNY     62  12  14 NE3       30.19R

$$

THE INLAND EMPIRE

CITY           SKY/WX    TMP DP  RH WIND       PRES   REMARKS
CORONA         MOSUNNY   52  26  36 MISG      30.22R
CHINO          MOSUNNY   54  31  41 CALM      30.22R
ONTARIO        PTSUNNY   61  16  17 N5        30.21R
SAN BERNARDINO   N/A     54  12  19 CALM      30.23R
RIVERSIDE AP   PTSUNNY   63  14  15 E7        30.22R
MORENO VALLEY    N/A     67  20  16 CALM      28.35R
MARCH ARB      MOSUNNY   55  12  18 CALM      30.23R
HORSETHIEF CYN   N/A     64   2   8 CALM      30.22R
PERRIS           N/A     55  22  28 CALM      30.20R
HEMET EAST       N/A     59   5  11 CALM      30.25R
FRENCH VALLEY  FAIR      54  16  22 N8        30.23R
TEMECULA         N/A     54  28  36 CALM      30.28R

$$

SAN BERNARDINO AND RIVERSIDE COUNTY MOUNTAINS

CITY           SKY/WX    TMP DP  RH WIND       PRES   REMARKS
BIG BEAR AP    MOSUNNY   28   0  29 CALM      30.43R
ANGELUS OAKS     N/A     46  10  23 CALM      30.23R

$$

SOUTHERN DESERT INCLUDING THE COACHELLA VALLEY

CITY           SKY/WX    TMP DP  RH WIND       PRES   REMARKS
PALM SPRINGS   SUNNY     65  10  11 W7        30.26R
THOUSAND PALMS   N/A     52  14  21 N1        30.21R
PALM DESERT      N/A     49  32  51 CALM      32.08S
THERMAL        SUNNY     54  18  24 N6        30.22R
BLYTHE         PTSUNNY   52  10  18 W3        30.26S
IMPERIAL AP    SUNNY     55  19  24 W6        30.22R
EL CENTRO NAS  PTSUNNY   54  14  20 W5        30.24R
MEXICALI       MOSUNNY   54  14  20 NW8       30.22

$$

UPPER DESERT

CITY           SKY/WX    TMP DP  RH WIND       PRES   REMARKS
HESPERIA         N/A     44   5  20 W3        30.52R
APPLE VALLEY     N/A     29  15  56 CALM      30.45R
PALMDALE       SUNNY     34   6  31 SW7       30.37R WCI  28
LANCASTER      SUNNY     29  -2  26 SW3       30.38R
EDWARDS AFB    PTSUNNY   30  -5  21 S3        30.36R
DAGGETT        MOSUNNY   36  -2  20 CALM      30.36R
29 PALMS N     SUNNY     44  -5  12 NW7       30.41R HAZE
NEEDLES        PTSUNNY   58   7  13 N10       30.32R

$$

REGIONAL REPORTS

CITY           SKY/WX    TMP DP  RH WIND       PRES   REMARKS
SANTA BARBARA  MOSUNNY   42  27  55 N3        30.18R HAZE
SANDBERG       SUNNY     56  -8   7 E22       30.37R
LAS VEGAS NV   MOSUNNY   46   3  17 S6        30.40R
PHOENIX AZ     PTSUNNY   61  12  14 E6        30.23R
TIJUANA        MOSUNNY   70  18  13 E8        30.21R
ENSENADA NW      N/A     72  32  23 E3        30.09S

$$

OFFSHORE ISLANDS

CITY           SKY/WX    TMP DP  RH WIND       PRES   REMARKS
CATALINA ARPT  SUNNY     70   9   9 NE7       30.24R
SAN CLEMENTE I PTSUNNY   69  23  17 CALM      30.20R
SAN NICOLAS IS MOSUNNY   69  18  14 W5        30.20R

$$

MARINE AND OFFSHORE BUOY REPORTS

STATION/POSITION SKY/WX   TEMP    WIND        PRES    VSBY  SWELL
                          AIR SEA DIR/SP/G                  HT/PER/DIR
                          (F)     (DEG/KT/KT) (MB)    (MI)  (FT/S/D)
TANNER BANKS               63 62              1022.0R
S CLEMENTE BASIN           65 63  350/  6/  6 1021.9R         5/270/12
SAN NICOLAS IS.               61                N/A           3/220/14
SO. S. ROSA ISLA           63 60  360/  6/  8 1022.2R         5/270/11
W. S. BARBARA CH           64 60   10/  2/  4 1022.2
M. S. BARBARA CH           62     250/  4/  6 1023.3
S. MONICA BASIN               61  170/  2/  4 1021.7R         3/260/12
S PEDRO CHANNEL               62                N/A           2/210/14
CMP PENDLETON NS              62                N/A           2/210/14
OCEANSIDE OFFSHR              63                N/A           2/200/13
TORREY PINES OTR              62                N/A           2/250/13
SAN DIEGO BAY                 65              1022.5R
POINT LOMA SOUTH              65                N/A           3/210/14

$$





USA.gov is the U.S. government's official web portal to all federal, state and local government web resources and services.